Theta_e
294 294 293 294 293 293 293 293 299 295 293 299 299 299 298 297 298 298 298 298 299 299 299 298 300 301 305 308 310 313 311 313 313 313 313 314 314 316 317 319 320 322 323 323
293 292 293 293 293 293 293 296 295 294 295 300 299 298 298 298 299 300 299 300 300 300 300 300 300 301 302 307 309 310 310 314 314 313 315 315 315 316 316 314 317 320 322 325
294 293 291 292 293 293 293 296 298 297 297 297 298 298 298 298 299 300 299 300 301 301 301 302 300 301 303 305 305 306 306 312 314 312 314 314 316 315 315 315 317 317 315 317
293 292 291 292 292 292 293 295 296 296 298 298 297 298 297 298 298 298 298 301 300 299 300 302 302 301 301 302 306 307 306 314 312 312 310 312 311 311 311 313 313 314 311 312
290 291 291 291 291 292 294 295 296 296 296 296 297 296 296 296 297 297 297 299 299 298 299 300 303 303 303 303 306 307 305 313 311 311 309 311 310 309 308 310 312 312 313 314
292 291 291 292 293 292 295 293 294 296 295 296 296 296 296 296 296 297 297 297 298 300 300 300 300 300 301 302 303 306 306 310 312 311 310 308 308 308 309 309 311 314 316 315
293 291 291 292 292 292 293 293 293 296 296 296 295 295 295 295 296 297 297 296 299 299 297 299 301 301 302 303 304 305 307 308 309 308 307 306 309 308 310 311 312 314 314 317
292 291 292 292 293 292 292 292 294 295 296 295 295 295 295 295 296 297 296 297 298 297 299 302 302 303 304 305 305 306 307 310 310 307 307 306 306 310 310 311 312 313 313 314
293 291 292 291 291 293 292 293 293 294 295 295 294 295 295 296 297 297 297 296 297 299 301 302 303 304 302 302 304 306 305 307 310 308 306 305 311 309 308 309 311 310 309 311
293 292 291 290 291 291 292 293 292 293 294 294 295 296 296 295 296 297 297 296 298 298 301 302 305 305 304 302 304 307 308 308 309 308 307 307 308 308 308 307 311 307 305 303
291 291 292 292 292 292 293 294 292 294 293 294 293 294 295 295 296 298 296 298 298 299 301 301 302 306 305 305 305 306 306 308 309 308 307 307 306 309 310 307 306 304 301 298
292 293 292 292 293 294 293 294 293 292 293 294 293 293 293 294 295 295 295 296 296 297 300 300 300 305 305 305 305 306 307 308 309 308 310 305 303 303 300 302 302 301 299 296
293 292 291 290 290 291 291 294 293 292 292 293 294 295 295 293 293 294 295 297 297 297 296 298 300 303 304 305 306 306 306 304 307 308 302 301 300 298 295 295 295 294 294 293
292 290 290 290 291 291 292 293 293 293 293 295 296 294 294 294 293 293 294 295 295 296 297 297 300 302 302 304 304 305 302 304 303 304 300 298 296 295 295 294 293 293 292 292
291 290 291 290 291 292 294 294 294 293 294 297 296 295 294 294 294 294 294 294 295 296 296 299 300 301 302 304 303 302 299 299 302 304 297 297 294 292 293 292 291 291 291 290
291 290 289 290 292 292 293 295 294 295 294 294 297 296 294 294 296 296 295 296 296 296 297 298 300 301 301 302 304 297 296 295 295 296 293 292 291 290 290 290 289 290 289 288
289 288 290 292 293 294 295 296 296 295 295 294 296 296 295 294 296 296 296 296 297 297 298 299 299 299 300 303 304 296 294 293 293 293 293 293 292 290 288 288 288 287 287 286
288 290 292 293 294 295 295 296 296 295 293 294 297 296 296 297 298 298 297 298 297 298 299 299 300 300 301 302 294 293 293 292 291 291 293 291 289 289 288 287 287 287 286 285
290 293 294 295 295 294 294 294 294 293 294 296 295 298 299 296 298 298 298 298 299 299 300 300 299 300 301 294 292 290 289 290 291 290 290 290 289 288 287 287 286 286 284 283
294 294 295 295 294 294 293 293 293 294 295 295 296 295 298 297 297 297 298 298 300 300 300 299 301 300 291 289 288 288 288 289 290 291 290 290 288 287 286 285 285 284 283 281
295 294 294 294 293 294 295 294 295 294 295 295 295 296 298 297 300 300 298 299 300 299 301 301 302 300 291 288 286 286 286 286 286 287 286 287 287 285 284 283 282 281 280 279
295 294 294 293 294 294 295 295 295 295 295 297 296 295 296 298 299 300 299 300 300 301 301 302 302 291 288 286 285 284 284 284 283 284 283 283 283 282 281 280 279 280 281 281
293 293 294 294 294 295 295 295 296 297 296 297 297 297 297 298 298 299 301 301 304 301 304 303 295 288 286 285 284 283 282 281 281 281 280 280 279 280 280 280 280 280 280 280
295 295 294 296 295 296 297 298 298 297 297 298 297 298 299 297 299 301 302 301 301 304 303 301 292 287 285 284 282 282 280 280 280 281 281 281 281 281 281 280 280 280 280 279
295 295 296 295 295 293 293 294 295 295 296 297 298 298 298 300 300 300 300 301 303 301 301 294 288 285 282 281 281 281 281 281 281 280 280 280 280 280 279 279 279 278 277 276
292 291 293 291 294 294 294 294 295 295 296 297 298 299 300 299 298 299 299 300 301 297 290 286 283 282 282 282 281 281 281 280 280 280 280 280 280 280 279 277 277 276 276 276
290 290 287 290 291 294 292 292 293 294 295 300 298 299 298 296 297 297 294 298 293 286 285 284 282 281 281 281 280 280 280 280 280 280 280 279 278 277 277 277 276 276 275 275
Wind_Speed
8 6 5 6 6 4 3 3 1 2 5 3 3 4 2 3 3 2 4 6 8 11 12 16 15 16 9 10 10 7 3 5 11 16 8 8 10 8 8 4 4 2 3 2
8 7 7 6 5 4 4 3 3 3 5 3 4 4 3 1 2 4 3 4 5 9 12 8 11 16 17 6 4 6 7 5 7 8 7 10 11 7 5 3 2 3 4 2
8 5 6 6 7 5 4 3 3 3 7 7 6 3 3 3 2 2 3 6 7 9 10 13 11 14 7 6 13 4 9 7 11 9 2 2 9 11 10 5 3 4 6 12
10 7 7 7 7 6 3 3 2 2 4 5 4 2 1 1 2 2 1 3 1 5 6 14 12 18 18 18 5 2 3 7 12 5 2 13 4 7 8 11 10 6 9 11
12 8 7 7 7 6 4 3 3 2 8 4 3 2 1 2 1 3 2 3 10 12 9 13 14 11 12 10 4 3 1 4 10 7 8 16 9 10 8 8 5 9 11 12
10 10 9 8 7 8 2 6 7 3 5 4 2 3 2 2 7 4 8 9 14 11 7 13 22 23 22 19 14 4 3 5 10 5 8 8 10 11 5 4 4 4 8 12
12 11 11 8 7 7 4 7 6 3 4 3 2 2 6 8 9 11 14 15 9 9 22 24 23 24 24 23 19 13 3 11 4 3 3 6 7 3 1 3 2 8 8 11
13 12 11 10 9 8 6 6 4 3 2 3 4 6 7 8 8 12 13 11 9 21 15 7 9 7 9 13 18 12 12 4 3 2 3 6 3 6 5 6 4 10 11 11
14 13 12 11 10 9 8 6 6 4 2 3 5 4 3 5 5 5 6 11 15 6 3 4 5 4 5 6 5 6 7 12 7 3 1 1 7 3 9 7 4 11 14 13
15 14 13 13 12 11 9 6 9 5 2 4 5 4 4 3 4 5 7 13 6 3 4 4 5 8 8 4 8 6 5 7 10 6 3 2 6 10 7 6 4 14 13 14
16 15 13 12 12 11 11 7 9 6 4 6 7 7 8 9 7 5 8 8 2 5 4 3 4 3 4 2 2 5 6 6 4 3 3 3 15 2 4 7 6 8 10 11
17 16 14 13 13 13 11 6 10 10 7 5 7 11 15 16 13 10 3 6 7 4 4 4 4 4 6 6 3 3 2 5 3 5 4 6 11 10 6 8 8 6 8 10
16 14 14 16 15 14 13 10 10 11 9 15 14 10 8 11 18 15 6 4 2 3 4 5 3 4 5 5 4 5 4 9 3 5 9 9 10 9 10 12 12 10 11 13
13 14 13 15 16 16 16 18 15 15 2 4 4 7 10 7 10 16 23 18 13 9 11 9 3 4 5 3 4 3 4 8 6 3 6 9 11 11 11 13 13 15 15 14
14 15 15 16 17 17 16 19 22 18 11 3 4 8 4 6 11 10 11 15 12 10 5 4 3 5 4 2 3 3 6 4 3 2 5 8 7 9 10 13 13 12 12 13
14 15 15 15 15 15 13 8 22 25 27 6 3 5 8 9 7 9 12 9 7 5 4 5 6 5 4 4 1 5 5 5 8 3 12 15 12 12 11 12 11 11 11 11
15 16 16 15 16 18 24 7 5 12 30 7 3 4 4 9 6 5 6 9 5 7 4 5 8 9 4 3 1 5 7 9 7 9 12 8 3 7 9 10 9 10 11 11
14 14 13 17 16 19 22 27 25 18 19 6 2 3 3 8 7 6 7 6 6 6 5 4 6 5 4 1 5 5 5 8 12 10 6 11 11 8 7 6 6 7 8 8
14 12 13 15 16 8 6 12 11 24 5 4 3 3 3 6 5 4 5 6 4 4 3 3 3 3 2 4 7 6 6 4 5 7 8 8 7 7 6 5 5 6 7 7
12 21 8 5 6 18 20 8 5 3 3 4 4 4 3 7 7 6 4 5 3 3 4 5 4 1 7 6 6 6 5 4 4 6 5 3 4 5 6 6 6 6 7 8
23 6 4 20 23 4 2 4 5 5 4 7 6 12 5 7 4 4 7 2 2 3 3 4 4 3 4 6 6 6 5 6 6 4 4 4 5 6 7 8 8 9 9 10
10 13 21 17 4 2 3 4 4 5 4 6 6 8 11 5 5 4 5 3 4 4 8 3 2 4 8 6 5 5 5 5 6 6 6 7 7 7 9 9 9 10 11 12
31 8 6 5 4 4 5 7 4 4 4 7 7 5 8 5 6 4 3 5 4 7 4 0 3 9 8 7 5 5 5 5 6 6 7 8 9 10 10 12 13 13 13 12
6 7 6 5 4 5 4 3 2 2 3 6 8 5 5 5 5 2 3 1 2 3 3 1 4 9 8 5 4 5 6 7 8 10 11 13 14 15 15 14 13 12 11 10
4 3 4 6 1 2 2 4 3 1 2 6 6 3 4 2 2 2 1 2 2 2 2 3 9 9 7 5 6 9 10 12 14 15 16 16 16 16 15 13 11 9 8 7
2 2 2 2 4 3 4 3 4 2 3 3 2 2 3 2 1 3 2 1 1 3 3 9 9 8 7 9 11 14 15 15 15 15 15 14 13 12 11 10 8 7 7 6
2 2 2 2 3 4 4 4 3 2 3 1 2 3 2 2 2 2 1 1 3 8 11 9 8 10 13 15 16 17 17 16 16 14 13 11 10 9 8 6 6 6 5 3
Wind_Direction
177 177 173 150 131 118 112 126 117 108 49 80 62 89 52 344 343 336 277 284 287 279 291 277 268 261 292 353 345 322 232 264 246 242 245 261 239 242 205 250 177 257 317 327
187 193 190 163 143 126 132 100 98 39 73 97 105 110 140 242 348 1 342 289 292 309 293 291 260 265 270 317 17 352 345 232 242 231 219 219 223 204 115 67 21 276 310 30
184 191 182 166 159 139 134 123 126 90 73 92 110 117 90 103 75 96 309 301 326 328 297 266 257 267 264 270 303 234 313 253 250 270 333 275 191 187 190 189 209 280 270 291
199 198 181 163 152 151 123 65 99 120 150 116 92 125 80 24 343 211 313 151 54 2 301 308 263 259 265 280 243 273 148 255 224 212 356 294 248 201 200 213 239 257 300 281
188 178 172 165 170 156 104 114 152 142 128 133 133 82 89 319 345 287 310 247 308 313 279 292 302 323 306 278 342 287 232 266 196 200 192 246 246 237 243 245 260 265 282 288
180 186 179 177 163 156 114 117 124 154 149 146 165 107 90 279 320 275 246 313 311 304 317 287 289 283 270 260 279 280 256 276 182 184 182 250 253 230 206 250 274 316 322 329
193 187 185 186 176 173 137 159 139 151 144 189 154 237 292 296 294 275 293 298 281 304 308 297 278 257 252 252 252 231 260 287 318 134 212 225 91 353 46 286 315 14 351 4
192 192 193 203 201 183 177 170 144 142 175 246 237 253 270 285 277 270 287 302 293 310 302 287 292 253 235 239 236 215 219 258 277 249 206 325 200 54 30 2 67 26 1 358
200 205 205 206 206 197 196 186 169 126 152 230 263 263 259 289 296 284 281 309 312 302 285 265 262 277 251 174 160 175 215 250 265 179 243 230 77 38 353 320 229 13 0 340
199 209 210 208 208 211 201 199 188 152 190 251 215 244 305 288 275 281 307 333 322 321 306 272 272 217 224 199 188 186 162 211 228 229 244 260 36 338 326 251 22 360 4 9
206 198 195 195 192 208 200 206 199 186 217 269 243 242 250 252 256 279 332 318 9 308 308 307 334 335 32 287 108 164 194 189 190 206 243 246 2 38 344 345 336 6 37 61
203 202 208 208 203 209 208 202 214 210 233 266 259 263 256 244 249 280 275 290 303 314 301 352 302 320 358 350 148 32 100 13 348 346 31 58 40 59 36 35 67 42 70 90
199 209 219 218 213 218 219 205 200 203 245 281 263 267 266 249 239 232 236 226 252 261 16 319 300 307 334 354 36 325 81 18 10 318 34 47 52 59 58 66 75 79 96 106
217 220 214 210 206 207 219 223 222 213 206 280 283 281 272 271 231 228 227 247 274 287 309 309 285 299 5 330 327 331 4 315 346 76 119 96 52 55 68 75 85 91 95 98
217 213 222 218 211 213 223 232 236 219 210 287 291 300 296 233 231 235 239 236 245 262 282 258 273 302 318 314 279 59 3 356 317 9 13 81 60 59 72 81 78 82 86 88
219 226 223 207 213 215 225 246 248 237 228 224 243 260 250 239 238 222 221 218 212 217 230 261 261 298 300 301 352 66 39 22 12 90 93 109 101 80 74 80 79 87 92 90
233 216 207 217 214 210 211 214 230 208 217 203 229 248 219 208 207 199 199 197 211 221 242 239 271 290 252 266 10 78 62 50 82 122 103 84 49 92 80 81 81 83 85 85
208 209 217 211 220 239 249 254 248 187 173 171 212 235 230 187 198 185 188 189 210 226 250 248 256 280 244 251 92 61 71 64 65 76 103 115 114 103 92 84 89 90 87 89
200 209 235 234 212 179 175 172 180 177 159 191 202 226 177 177 194 149 175 194 214 239 240 232 241 237 240 67 108 71 39 32 99 94 93 103 106 105 94 84 81 93 94 95
231 183 159 139 143 143 122 135 150 169 214 215 239 202 184 177 179 178 193 193 233 234 212 180 218 117 104 99 99 85 61 59 156 147 133 118 107 102 98 95 99 108 108 108
157 134 99 136 128 104 138 141 185 175 218 207 215 200 166 202 178 179 217 193 214 244 162 210 202 165 124 129 104 88 74 71 81 113 102 115 142 133 121 112 111 116 122 125
161 133 135 140 168 158 178 180 172 219 230 180 177 195 202 178 189 201 179 233 186 251 148 219 219 94 134 131 103 84 78 86 89 94 102 109 118 128 130 124 125 130 130 127
134 119 155 178 162 200 205 189 196 207 197 187 166 159 162 164 186 202 206 223 199 132 202 140 54 132 142 137 122 99 92 94 98 100 107 110 116 127 130 132 131 132 130 126
149 169 157 213 184 225 193 207 171 116 152 168 174 145 185 180 180 248 243 80 227 201 215 111 129 149 145 135 126 125 119 124 118 115 117 120 123 124 124 125 125 129 127 122
169 161 197 200 134 82 133 129 122 151 194 157 148 137 185 152 205 220 266 207 202 357 60 102 141 144 139 130 132 133 128 125 123 124 124 124 124 125 122 121 121 118 115 109
85 90 161 145 177 157 158 148 145 174 200 173 155 137 161 148 222 195 203 240 202 111 94 132 137 138 140 137 135 135 135 133 129 127 125 123 123 123 122 121 119 119 114 108
84 101 96 96 67 131 132 148 185 234 189 183 190 173 107 130 180 192 212 356 70 130 132 133 140 145 144 141 139 138 136 133 132 130 128 125 122 121 119 124 129 127 123 113